Voltar ao catálogo

CZ-6A DEB

AtivoSSO
NORAD 54916·DEBRIS·🇨🇳 China

Lançado Nov 11, 2022 de Taiyuan Satellite Launch Center

Loading…

Próximas Passagens (próximas 24 horas)

TLE

AtualizadoSource: Space-Track

Época: Sep 13, 2026, 23:40 UTC

1 54916U 22151RD  26256.98644108  .00000331  00000-0  20918-3 0  9997
2 54916  98.8579 256.0201 0051302  95.0022 265.7008 14.10143037194037

Acompanhe CZ-6A DEB em tempo real com AllMySat

Download on the App Store